UAL65 KIAH-SBGR

Flight info

Callsign UAL65
Flight time N/A
Altitude 35000
Route FLYZA5 KELPP A766 KEHLI UL674 ATUVI DCT SIA/N0487F370 DCT NOSIS UL349 SATOE L343 ANADA DCT KORTO DCT KOXAM/N0482F390 UA312 TONOM/N0484F380 DCT TERET/N0480F400 DCT XINGU DCT SIGAX/N0482F390 DCT ESDEV DCT PANAB UZ87 OBLUG UZ42 ZARES MOLLE1D
Aircraft B772/H-SDE2E3FGHIJ5LORVWXY/LB1D1

Departure

Time 2026-05-04 03:46
Airport George Bush Intercontinental Airport (KIAH)

Arrival

Time N/A
Airport São Paulo/Guarulhos–Governor André Franco Montoro International Airport (SBGR)
Time Latitude Longitude Altitude Speed Heading
2026-05-04 03:06 29.98386 -95.33583 102 ft 0 kts 60°
2026-05-04 03:29 29.98385 -95.33584 111 ft 2 kts 60°
2026-05-04 03:30 29.98377 -95.33601 108 ft 2 kts 62°
2026-05-04 03:30 29.98370 -95.33618 108 ft 2 kts 64°
2026-05-04 03:30 29.98363 -95.33636 107 ft 2 kts 40°
2026-05-04 03:30 29.98348 -95.33644 109 ft 2 kts
2026-05-04 03:31 29.98332 -95.33642 108 ft 2 kts 336°
2026-05-04 03:31 29.98318 -95.33632 107 ft 2 kts 311°
2026-05-04 03:31 29.98309 -95.33616 108 ft 2 kts 283°
2026-05-04 03:31 29.98307 -95.33607 107 ft 0 kts 272°
2026-05-04 03:37 29.98308 -95.33608 107 ft 1 kts 272°
2026-05-04 03:37 29.98309 -95.33644 109 ft 6 kts 272°
2026-05-04 03:37 29.98314 -95.33702 111 ft 8 kts 276°
2026-05-04 03:37 29.98317 -95.33777 109 ft 12 kts 271°
2026-05-04 03:38 29.98317 -95.33874 110 ft 12 kts 270°
2026-05-04 03:38 29.98321 -95.33970 109 ft 12 kts 278°
2026-05-04 03:38 29.98359 -95.34058 110 ft 13 kts 307°
2026-05-04 03:38 29.98377 -95.34156 111 ft 13 kts 268°
2026-05-04 03:39 29.98376 -95.34258 110 ft 13 kts 270°
2026-05-04 03:39 29.98377 -95.34360 112 ft 13 kts 270°
2026-05-04 03:39 29.98352 -95.34457 110 ft 13 kts 240°
2026-05-04 03:39 29.98323 -95.34555 109 ft 14 kts 268°
2026-05-04 03:40 29.98325 -95.34681 108 ft 16 kts 271°
2026-05-04 03:40 29.98326 -95.34809 108 ft 16 kts 271°
2026-05-04 03:40 29.98326 -95.34936 109 ft 15 kts 268°
2026-05-04 03:40 29.98323 -95.35060 109 ft 15 kts 268°
2026-05-04 03:41 29.98334 -95.35161 109 ft 12 kts 301°
2026-05-04 03:41 29.98399 -95.35214 109 ft 12 kts 333°
2026-05-04 03:41 29.98471 -95.35256 109 ft 12 kts 333°
2026-05-04 03:41 29.98542 -95.35297 110 ft 12 kts 333°
2026-05-04 03:42 29.98613 -95.35339 108 ft 12 kts 333°
2026-05-04 03:42 29.98684 -95.35385 110 ft 12 kts 332°
2026-05-04 03:42 29.98754 -95.35428 109 ft 12 kts 332°
2026-05-04 03:42 29.98824 -95.35472 109 ft 11 kts 332°
2026-05-04 03:43 29.98884 -95.35515 109 ft 9 kts 314°
2026-05-04 03:43 29.98893 -95.35584 109 ft 9 kts 251°
2026-05-04 03:43 29.98854 -95.35640 109 ft 9 kts 228°
2026-05-04 03:43 29.98821 -95.35693 109 ft 8 kts 238°
2026-05-04 03:44 29.98796 -95.35744 109 ft 6 kts 241°
2026-05-04 03:44 29.98775 -95.35767 112 ft 3 kts 199°
2026-05-04 03:44 29.98751 -95.35761 111 ft 3 kts 157°
2026-05-04 03:44 29.98748 -95.35759 111 ft 0 kts 154°
2026-05-04 03:45 29.98687 -95.35724 109 ft 30 kts 152°
2026-05-04 03:45 29.98283 -95.35478 108 ft 101 kts 152°
2026-05-04 03:46 29.97465 -95.34977 109 ft 163 kts 152°
2026-05-04 03:46 29.96357 -95.34322 524 ft 184 kts 154°
2026-05-04 03:46 29.95268 -95.33630 1520 ft 169 kts 141°
2026-05-04 03:46 29.94527 -95.32521 1926 ft 180 kts 126°
2026-05-04 03:47 29.93800 -95.31315 2131 ft 190 kts 128°
2026-05-04 03:47 29.92998 -95.30066 2504 ft 195 kts 128°
2026-05-04 03:47 29.92182 -95.28827 3024 ft 194 kts 128°
2026-05-04 03:47 29.91352 -95.27590 3479 ft 196 kts 128°
2026-05-04 03:48 29.90519 -95.26358 3891 ft 199 kts 128°
2026-05-04 03:48 29.89615 -95.25027 3969 ft 222 kts 128°
2026-05-04 03:48 29.88625 -95.23568 4063 ft 245 kts 127°
2026-05-04 03:48 29.87579 -95.21899 4425 ft 257 kts 125°
2026-05-04 03:49 29.86538 -95.20204 4946 ft 263 kts 125°
2026-05-04 03:49 29.85466 -95.18468 4989 ft 267 kts 125°
2026-05-04 03:49 29.84402 -95.16755 5002 ft 267 kts 126°
2026-05-04 03:49 29.83315 -95.15010 5009 ft 269 kts 126°
2026-05-04 03:50 29.82189 -95.13293 4992 ft 266 kts 134°
2026-05-04 03:50 29.80753 -95.11914 5298 ft 272 kts 143°
2026-05-04 03:50 29.79224 -95.10637 6003 ft 273 kts 144°
2026-05-04 03:50 29.77680 -95.09328 6577 ft 279 kts 144°
2026-05-04 03:51 29.76116 -95.07976 7130 ft 283 kts 144°
2026-05-04 03:51 29.74567 -95.06566 7701 ft 286 kts 138°
2026-05-04 03:51 29.73154 -95.04927 8277 ft 290 kts 133°
2026-05-04 03:51 29.71801 -95.03198 8887 ft 292 kts 133°
2026-05-04 03:52 29.70444 -95.01433 9466 ft 296 kts 133°
2026-05-04 03:52 29.69068 -94.99650 10029 ft 300 kts 133°
2026-05-04 03:52 29.67671 -94.97852 10310 ft 314 kts 133°
2026-05-04 03:52 29.66162 -94.95925 10452 ft 333 kts 133°
2026-05-04 03:53 29.64563 -94.93894 10609 ft 352 kts 133°
2026-05-04 03:53 29.62827 -94.91840 10988 ft 363 kts 137°
2026-05-04 03:53 29.60954 -94.89838 11489 ft 371 kts 139°
2026-05-04 03:53 29.59022 -94.87839 12123 ft 375 kts 140°
2026-05-04 03:54 29.57072 -94.85832 12801 ft 378 kts 140°
2026-05-04 03:54 29.55106 -94.83802 13445 ft 382 kts 140°
2026-05-04 03:54 29.53120 -94.81741 14049 ft 387 kts 140°
2026-05-04 03:54 29.51113 -94.79650 14553 ft 393 kts 139°
2026-05-04 03:55 29.49071 -94.77516 15048 ft 399 kts 139°
2026-05-04 03:55 29.47010 -94.75356 15555 ft 404 kts 139°
2026-05-04 03:55 29.44924 -94.73168 16069 ft 409 kts 139°
2026-05-04 03:55 29.42813 -94.70954 16575 ft 414 kts 139°
2026-05-04 03:56 29.40676 -94.68712 17071 ft 419 kts 139°
2026-05-04 03:56 29.38512 -94.66444 17551 ft 424 kts 139°
2026-05-04 03:56 29.36316 -94.64143 18022 ft 429 kts 140°
2026-05-04 03:56 29.34129 -94.61853 18495 ft 434 kts 140°
2026-05-04 03:57 29.31891 -94.59511 18904 ft 439 kts 140°
2026-05-04 03:57 29.29623 -94.57139 19300 ft 443 kts 140°
2026-05-04 03:57 29.27334 -94.54747 19693 ft 448 kts 140°
2026-05-04 03:57 29.25015 -94.52326 20087 ft 453 kts 140°
2026-05-04 03:58 29.20312 -94.47419 20865 ft 462 kts 140°
2026-05-04 03:58 29.17927 -94.44934 21248 ft 466 kts 140°
2026-05-04 03:58 29.15518 -94.42424 21638 ft 470 kts 141°
2026-05-04 03:59 29.13080 -94.39886 22009 ft 475 kts 141°
2026-05-04 03:59 29.10621 -94.37329 22378 ft 479 kts 141°
2026-05-04 03:59 29.08140 -94.34750 22740 ft 484 kts 141°
2026-05-04 03:59 29.05665 -94.32179 23111 ft 488 kts 141°
2026-05-04 04:00 29.03135 -94.29553 23492 ft 493 kts 141°
2026-05-04 04:00 29.00581 -94.26904 23850 ft 497 kts 141°
2026-05-04 04:00 28.98011 -94.24239 24207 ft 500 kts 141°
2026-05-04 04:00 28.95430 -94.21565 24585 ft 502 kts 141°
2026-05-04 04:01 28.92834 -94.18876 24963 ft 504 kts 141°
2026-05-04 04:01 28.90232 -94.16183 25318 ft 506 kts 141°
2026-05-04 04:01 28.87612 -94.13475 25673 ft 509 kts 141°
2026-05-04 04:01 28.84980 -94.10756 26000 ft 512 kts 141°
2026-05-04 04:02 28.82331 -94.08021 26292 ft 515 kts 141°
2026-05-04 04:02 28.79693 -94.05301 26597 ft 518 kts 141°
2026-05-04 04:02 28.77012 -94.02538 26924 ft 521 kts 141°
2026-05-04 04:02 28.74315 -93.99760 27237 ft 523 kts 141°
2026-05-04 04:03 28.71610 -93.96975 27513 ft 526 kts 141°
2026-05-04 04:03 28.68885 -93.94172 27797 ft 528 kts 141°
2026-05-04 04:03 28.66154 -93.91364 28078 ft 530 kts 142°
2026-05-04 04:03 28.63408 -93.88543 28379 ft 532 kts 142°
2026-05-04 04:04 28.60649 -93.85712 28657 ft 534 kts 142°
2026-05-04 04:04 28.57881 -93.82874 28902 ft 537 kts 142°
2026-05-04 04:04 28.55100 -93.80024 29188 ft 539 kts 142°
2026-05-04 04:04 28.52341 -93.77199 29451 ft 540 kts 142°
2026-05-04 04:05 28.49545 -93.74338 29688 ft 543 kts 142°
2026-05-04 04:05 28.46727 -93.71457 29908 ft 545 kts 142°
2026-05-04 04:05 28.43899 -93.68568 30144 ft 547 kts 142°
2026-05-04 04:05 28.41062 -93.65671 30356 ft 548 kts 142°
2026-05-04 04:06 28.38257 -93.62809 30554 ft 550 kts 142°
2026-05-04 04:06 28.35406 -93.59901 30743 ft 551 kts 142°
2026-05-04 04:06 28.32547 -93.56989 30922 ft 552 kts 142°
2026-05-04 04:06 28.29679 -93.54069 31107 ft 553 kts 142°
2026-05-04 04:07 28.26806 -93.51148 31263 ft 554 kts 142°
2026-05-04 04:07 28.23960 -93.48255 31428 ft 556 kts 142°
2026-05-04 04:07 28.21076 -93.45326 31587 ft 557 kts 142°
2026-05-04 04:07 28.18187 -93.42393 31798 ft 556 kts 142°
2026-05-04 04:08 28.15301 -93.39466 32015 ft 555 kts 142°
2026-05-04 04:08 28.12423 -93.36548 32252 ft 554 kts 142°
2026-05-04 04:08 28.09579 -93.33668 32492 ft 553 kts 142°
2026-05-04 04:08 28.06712 -93.30767 32694 ft 553 kts 142°
2026-05-04 04:09 28.03839 -93.27863 32906 ft 552 kts 142°
2026-05-04 04:09 28.00975 -93.24970 33108 ft 552 kts 142°
2026-05-04 04:09 27.99077 -93.23053 33259 ft 551 kts 142°
2026-05-04 04:09 27.96217 -93.20167 33479 ft 550 kts 142°
2026-05-04 04:10 27.93360 -93.17287 33697 ft 550 kts 142°
2026-05-04 04:10 27.90500 -93.14405 33910 ft 549 kts 142°
2026-05-04 04:10 27.87643 -93.11529 34112 ft 548 kts 142°
2026-05-04 04:10 27.84796 -93.08665 34300 ft 548 kts 142°
2026-05-04 04:11 27.81949 -93.05803 34457 ft 547 kts 142°
2026-05-04 04:11 27.79098 -93.02939 34603 ft 548 kts 142°
2026-05-04 04:11 27.76251 -93.00081 34749 ft 547 kts 143°
2026-05-04 04:11 27.73409 -92.97231 34922 ft 547 kts 143°
2026-05-04 04:12 27.70567 -92.94382 35044 ft 547 kts 143°
2026-05-04 04:12 27.67715 -92.91526 35087 ft 548 kts 143°
2026-05-04 04:12 27.62037 -92.85845 35145 ft 547 kts 143°
2026-05-04 04:13 27.56341 -92.80153 35144 ft 546 kts 143°
2026-05-04 04:13 27.50695 -92.74519 35151 ft 545 kts 143°